| time (UTC) | temp C | wind direction | speed KPH | gust KPH | rain 1hr cm | rain 24hr cm | rain mn cm | humidity % | barometer mb |
| 20260508033013 | 7 | 259 | 6.4 | 11.3 | 0.00 | 0.94 | 0.00 | 96 | 1003.2 |
| 20260508031507 | 7 | 180 | 4.8 | 8.0 | 0.00 | 0.94 | 0.00 | 98 | 1003.2 |
| 20260508030002 | 6 | 218 | 4.8 | 11.3 | 0.00 | 0.94 | 0.94 | 98 | 1003.3 |
| 20260508024501 | 7 | 215 | 4.8 | 8.0 | 0.00 | 0.94 | 0.94 | 97 | 1003.1 |
| 20260508023000 | 7 | 240 | 3.2 | 8.0 | 0.00 | 0.94 | 0.94 | 97 | 1003.1 |
| 20260508021601 | 8 | 202 | 6.4 | 11.3 | 0.00 | 0.94 | 0.94 | 97 | 1002.7 |
| 20260508020108 | 8 | 205 | 8.0 | 11.3 | 0.00 | 0.94 | 0.94 | 97 | 1003.0 |
| 20260508014620 | 7 | 194 | 6.4 | 11.3 | 0.00 | 0.94 | 0.94 | 97 | 1003.2 |
| 20260508013100 | 7 | 215 | 4.8 | 6.4 | 0.00 | 0.94 | 0.94 | 96 | 1003.0 |
| 20260508011612 | 7 | 201 | 4.8 | 8.0 | 0.00 | 0.94 | 0.94 | 97 | 1003.0 |
| 20260508010054 | 6 | 242 | 6.4 | 11.3 | 0.00 | 0.94 | 0.94 | 96 | 1003.2 |
| 20260508004555 | 7 | 207 | 6.4 | 11.3 | 0.00 | 0.94 | 0.94 | 95 | 1003.6 |
| 20260508003053 | 7 | 257 | 11.3 | 12.9 | 0.00 | 0.94 | 0.94 | 95 | 1003.4 |
| 20260508001551 | 9 | 222 | 9.7 | 16.1 | 0.00 | 0.94 | 0.94 | 95 | 1003.1 |
| 20260508000050 | 10 | 169 | 4.8 | 20.9 | 0.00 | 0.94 | 0.94 | 96 | 1003.3 |
| 20260507234549 | 10 | 195 | 9.7 | 14.5 | 0.00 | 0.94 | 0.94 | 96 | 1003.3 |
| 20260507233049 | 10 | 201 | 11.3 | 19.3 | 0.00 | 0.94 | 0.94 | 96 | 1003.5 |
| 20260507231552 | 10 | 200 | 12.9 | 24.1 | 0.00 | 0.94 | 0.94 | 96 | 1003.5 |
| 20260507230048 | 10 | 190 | 12.9 | 24.1 | 0.00 | 0.94 | 0.94 | 96 | 1003.8 |
| 20260507224549 | 10 | 206 | 12.9 | 17.7 | 0.03 | 0.94 | 0.94 | 96 | 1003.5 |
| 20260507223047 | 9 | 205 | 8.0 | 16.1 | 0.03 | 0.94 | 0.94 | 96 | 1003.8 |
| 20260507221546 | 9 | 232 | 12.9 | 19.3 | 0.03 | 0.94 | 0.94 | 96 | 1003.9 |
| 20260507220045 | 10 | 184 | 6.4 | 20.9 | 0.03 | 0.94 | 0.94 | 95 | 1004.0 |
| 20260507214548 | 9 | 236 | 12.9 | 24.1 | 0.00 | 0.91 | 0.91 | 94 | 1004.0 |
| 20260507213043 | 9 | 172 | 6.4 | 22.5 | 0.05 | 0.91 | 0.91 | 93 | 1004.0 |
| 20260507211545 | 10 | 219 | 8.0 | 51.5 | 0.15 | 0.91 | 0.91 | 94 | 1003.1 |
| 20260507210041 | 10 | 140 | 29.0 | 45.1 | 0.23 | 0.91 | 0.91 | 94 | 1003.4 |
| 20260507204539 | 10 | 150 | 11.3 | 29.0 | 0.33 | 0.91 | 0.91 | 94 | 1004.1 |
| 20260507203038 | 9 | 223 | 6.4 | 16.1 | 0.30 | 0.86 | 0.86 | 94 | 1004.8 |
| 20260507201535 | 10 | 217 | 11.3 | 35.4 | 0.36 | 0.79 | 0.79 | 94 | 1004.9 |
| 20260507200034 | 10 | 184 | 17.7 | 35.4 | 0.38 | 0.69 | 0.69 | 96 | 1005.3 |
| 20260507194533 | 7 | 232 | 24.1 | 41.8 | 0.33 | 0.58 | 0.58 | 95 | 1006.4 |
| 20260507193034 | 8 | 223 | 17.7 | 40.2 | 0.43 | 0.53 | 0.53 | 90 | 1006.1 |
| 20260507191533 | 11 | 186 | 17.7 | 40.2 | 0.33 | 0.43 | 0.43 | 93 | 1005.7 |
| 20260507190028 | 11 | 157 | 22.5 | 35.4 | 0.23 | 0.30 | 0.30 | 93 | 1005.7 |
| 20260507184527 | 11 | 158 | 24.1 | 38.6 | 0.15 | 0.23 | 0.23 | 93 | 1006.2 |
| 20260507183040 | 11 | 207 | 20.9 | 40.2 | 0.03 | 0.10 | 0.10 | 92 | 1006.7 |
| 20260507181529 | 12 | 185 | 22.5 | 40.2 | 0.00 | 0.08 | 0.08 | 91 | 1006.3 |
| 20260507180031 | 12 | 169 | 22.5 | 57.9 | 0.00 | 0.08 | 0.08 | 90 | 1006.0 |
| 20260507174523 | 12 | 174 | 19.3 | 48.3 | 0.00 | 0.08 | 0.08 | 89 | 1006.2 |
| 20260507173021 | 12 | 172 | 24.1 | 38.6 | 0.00 | 0.08 | 0.08 | 90 | 1006.5 |
| 20260507171519 | 12 | 185 | 30.6 | 46.7 | 0.00 | 0.08 | 0.08 | 90 | 1007.0 |
| 20260507170018 | 12 | 191 | 20.9 | 51.5 | 0.00 | 0.08 | 0.08 | 91 | 1007.2 |
| 20260507164515 | 12 | 213 | 29.0 | 43.5 | 0.00 | 0.08 | 0.08 | 90 | 1007.7 |
| 20260507163013 | 13 | 160 | 22.5 | 46.7 | 0.00 | 0.08 | 0.08 | 90 | 1007.8 |
| 20260507161511 | 13 | 178 | 25.7 | 40.2 | 0.00 | 0.08 | 0.08 | 90 | 1008.3 |
| 20260507160017 | 12 | 204 | 22.5 | 41.8 | 0.00 | 0.08 | 0.08 | 90 | 1008.8 |
| 20260507154505 | 12 | 179 | 29.0 | 46.7 | 0.00 | 0.08 | 0.08 | 91 | 1009.2 |
| 20260507153001 | 12 | 158 | 24.1 | 40.2 | 0.00 | 0.08 | 0.08 | 91 | 1009.6 |
| 20260507151600 | 12 | 167 | 19.3 | 43.5 | 0.00 | 0.08 | 0.08 | 91 | 1009.9 |
| 20260507144558 | 12 | 185 | 27.4 | 53.1 | 0.00 | 0.08 | 0.08 | 91 | 1010.1 |
| 20260507143056 | 12 | 219 | 24.1 | 48.3 | 0.00 | 0.08 | 0.08 | 91 | 1010.8 |
| 20260507141551 | 12 | 197 | 24.1 | 48.3 | 0.00 | 0.08 | 0.08 | 92 | 1011.1 |
| 20260507134552 | 12 | 180 | 25.7 | 43.5 | 0.00 | 0.08 | 0.08 | 91 | 1011.3 |
| 20260507133058 | 12 | 200 | 27.4 | 46.7 | 0.00 | 0.08 | 0.08 | 91 | 1011.8 |
| 20260507131549 | 12 | 193 | 22.5 | 41.8 | 0.00 | 0.08 | 0.08 | 91 | 1011.5 |
| 20260507124602 | 12 | 183 | 25.7 | 48.3 | 0.00 | 0.08 | 0.08 | 92 | 1011.5 |
| 20260507123045 | 12 | 147 | 27.4 | 48.3 | 0.00 | 0.08 | 0.08 | 92 | 1011.4 |
| 20260507121541 | 12 | 162 | 29.0 | 57.9 | 0.00 | 0.08 | 0.08 | 93 | 1012.2 |
| 20260507120039 | 12 | 171 | 27.4 | 41.8 | 0.00 | 0.08 | 0.08 | 92 | 1012.8 |
| 20260507114553 | 12 | 195 | 22.5 | 45.1 | 0.00 | 0.08 | 0.08 | 93 | 1013.1 |
| 20260507113037 | 12 | 221 | 20.9 | 41.8 | 0.00 | 0.08 | 0.08 | 93 | 1013.2 |
| 20260507111534 | 12 | 181 | 22.5 | 53.1 | 0.00 | 0.08 | 0.08 | 93 | 1013.6 |
| 20260507110039 | 12 | 180 | 24.1 | 43.5 | 0.00 | 0.08 | 0.08 | 93 | 1013.0 |
| 20260507104533 | 11 | 185 | 22.5 | 35.4 | 0.00 | 0.08 | 0.08 | 93 | 1013.6 |
| 20260507103028 | 11 | 177 | 25.7 | 48.3 | 0.00 | 0.08 | 0.08 | 93 | 1013.5 |
| 20260507101528 | 11 | 165 | 25.7 | 51.5 | 0.00 | 0.08 | 0.08 | 92 | 1013.5 |
| 20260507100027 | 11 | 167 | 25.7 | 43.5 | 0.00 | 0.08 | 0.08 | 93 | 1013.7 |
| 20260507094527 | 11 | 160 | 17.7 | 41.8 | 0.00 | 0.08 | 0.08 | 93 | 1013.6 |
| 20260507093034 | 11 | 180 | 24.1 | 46.7 | 0.00 | 0.08 | 0.08 | 93 | 1013.4 |
| 20260507091536 | 12 | 177 | 22.5 | 46.7 | 0.03 | 0.08 | 0.08 | 93 | 1014.0 |
| 20260507090024 | 12 | 171 | 29.0 | 48.3 | 0.03 | 0.08 | 0.08 | 93 | 1013.6 |
| 20260507084525 | 12 | 191 | 27.4 | 46.7 | 0.05 | 0.08 | 0.08 | 94 | 1014.0 |
| 20260507083020 | 11 | 212 | 16.1 | 35.4 | 0.08 | 0.08 | 0.08 | 94 | 1014.1 |
| 20260507081519 | 11 | 153 | 17.7 | 33.8 | 0.05 | 0.05 | 0.05 | 94 | 1014.2 |
| 20260507080014 | 11 | 165 | 12.9 | 20.9 | 0.05 | 0.05 | 0.05 | 95 | 1014.4 |
| 20260507074510 | 10 | 203 | 12.9 | 24.1 | 0.03 | 0.03 | 0.03 | 95 | 1014.7 |
| 20260507073009 | 11 | 224 | 9.7 | 22.5 | 0.00 | 0.00 | 0.00 | 94 | 1015.1 |
| 20260507071510 | 10 | 183 | 17.7 | 30.6 | 0.00 | 0.00 | 0.00 | 94 | 1015.0 |
| 20260507070011 | 11 | 190 | 32.2 | 48.3 | 0.00 | 0.00 | 0.00 | 94 | 1015.2 |
| 20260507064506 | 11 | 170 | 24.1 | 40.2 | 0.00 | 0.00 | 0.00 | 95 | 1015.1 |
| 20260507063013 | 11 | 161 | 22.5 | 35.4 | 0.00 | 0.00 | 0.00 | 95 | 1015.4 |
| 20260507061602 | 11 | 173 | 17.7 | 29.0 | 0.00 | 0.00 | 0.00 | 96 | 1015.3 |
| 20260507060059 | 11 | 178 | 19.3 | 32.2 | 0.00 | 0.00 | 0.00 | 96 | 1015.6 |
| 20260507054557 | 11 | 186 | 14.5 | 32.2 | 0.00 | 0.00 | 0.00 | 97 | 1016.0 |
| 20260507053053 | 10 | 217 | 14.5 | 25.7 | 0.00 | 0.00 | 0.00 | 98 | 1016.2 |
| 20260507051554 | 10 | 192 | 11.3 | 20.9 | 0.00 | 0.00 | 0.00 | 98 | 1016.2 |
| 20260507050047 | 8 | 242 | 12.9 | 20.9 | 0.00 | 0.00 | 0.00 | 97 | 1017.0 |
| 20260507044546 | 8 | 208 | 4.8 | 22.5 | 0.00 | 0.00 | 0.00 | 96 | 1017.5 |
| 20260507043043 | 7 | 236 | 6.4 | 14.5 | 0.00 | 0.00 | 0.00 | 97 | 1017.7 |
| 20260507041541 | 7 | 220 | 8.0 | 12.9 | 0.00 | 0.00 | 0.00 | 96 | 1018.2 |
| 20260507040140 | 8 | 257 | 11.3 | 16.1 | 0.00 | 0.00 | 0.00 | 96 | 1018.3 |
| 20260507034540 | 8 | 250 | 11.3 | 17.7 | 0.00 | 0.00 | 0.00 | 96 | 1018.6 |